Location: Valdosta
(30.8330°N, 83.2790°W)
Time: 04:35:12
(UTC-04:00)

Amateur Radio Satellites - All Passes

Search period start: 02 August 2014 04:05
Search period end: 03 August 2014 04:05
Location: Valdosta, 30.8330°N, 83.2790°W

Satellite Date Start Highest point End Downlink Frequencies (MHz)
Time Altitude Azimuth
TMSAT-1 02 Aug 04:06:08 04:11:02 38° 99° (E) 04:15:53 436.925 FM
Oscar 19 02 Aug 04:06:30 04:10:35 24° 291° (WNW) 04:14:41 437.125 CW, 437.150 USB
PANSAT 02 Aug 04:08:18 04:12:04 51° 172° (S) 04:15:51 not established
OPAL 02 Aug 04:17:40 04:22:05 34° 70° (ENE) 04:26:32 ?
Gurwin Techsat 1B 02 Aug 04:33:06 04:38:25 79° 284° (WNW) 04:43:42 435.225 FM
KITSAT 1 02 Aug 04:34:12 04:39:47 21° 103° (ESE) 04:45:22 435.175 FM
AO-7 02 Aug 04:36:14 04:41:54 20° 96° (E) 04:47:31 29.400 - 29.500 MHz
Oscar 16 02 Aug 04:37:47 04:39:28 12° 295° (WNW) 04:41:08 437.025 USB, Beacon 2401.1428
JAS-1B 02 Aug 04:46:40 04:55:19 59° 289° (WNW) 05:02:33 435.800 - 435.900 CW/SSB
ITAMSAT 1 02 Aug 05:07:01 05:09:41 14° 294° (WNW) 05:12:21 435.822 SSB
ISS 02 Aug 05:22:12 05:24:54 22° 38° (NE) 05:27:35 145.800 FM
TMSAT-1 02 Aug 05:46:48 05:50:38 21° 292° (WNW) 05:54:27 436.925 FM
PANSAT 02 Aug 05:48:19 05:52:08 58° 184° (S) 05:55:56 not established
Uosat F 02 Aug 05:48:24 05:53:26 85° 103° (ESE) 05:58:25 435.120 FM
OPAL 02 Aug 05:57:25 06:00:58 20° 262° (W) 06:04:33 ?
MaSat-1 02 Aug 06:06:59 06:11:01 23° 59° (ENE) 06:14:49 437.345 MHz
KITSAT 1 02 Aug 06:26:24 06:34:25 67° 298° (WNW) 06:42:29 435.175 FM
AO-7 02 Aug 06:26:53 06:35:08 69° 290° (WNW) 06:43:19 29.400 - 29.500 MHz
STRAND 1 02 Aug 06:48:26 06:52:36 26° 70° (ENE) 06:56:46 ?
Hamsat 02 Aug 06:52:12 06:55:56 28° 97° (E) 06:59:41 145.90 MHz
JAS-2 02 Aug 06:56:09 07:00:30 24° 95° (E) 07:04:37 435.800 - 435.900 CW/SSB, 435.910 FM
ISS 02 Aug 06:58:44 07:01:33 25° 232° (SW) 07:04:21 145.800 FM
Saudisat 1A 02 Aug 07:13:12 07:17:33 60° 299° (WNW) 07:21:56 436.775 MHz
PANSAT 02 Aug 07:28:38 07:32:05 31° 197° (SSW) 07:35:32 not established
MaSat-1 02 Aug 07:43:46 07:48:22 34° 256° (WSW) 07:52:35 437.345 MHz
AO-7 02 Aug 08:24:17 08:26:23 11° 307° (NW) 08:28:30 29.400 - 29.500 MHz
STRAND 1 02 Aug 08:27:12 08:31:36 29° 262° (W) 08:36:02 ?
KITSAT 1 02 Aug 08:28:09 08:31:22 13° 318° (NW) 08:34:37 435.175 FM
Hamsat 02 Aug 08:28:39 08:31:40 19° 289° (WNW) 08:34:41 145.90 MHz
JAS-2 02 Aug 08:40:50 08:45:36 30° 291° (WNW) 08:50:05 435.800 - 435.900 CW/SSB, 435.910 FM
SO-67 02 Aug 08:56:04 08:59:26 48° 284° (WNW) 09:02:46 435.3500 MHz FM
Sapphire 02 Aug 09:17:00 09:21:08 22° 56° (NE) 09:25:14 437.095 MHz 1200 baud AX-25 AFSK
PCSat 02 Aug 09:49:07 09:54:20 46° 62° (ENE) 09:59:30 145.825 MHz
HO-68 02 Aug 09:51:32 09:57:52 34° 99° (E) 10:04:09 435.675 MHz FM
Oscar 11 02 Aug 10:09:47 10:11:18 12° 93° (E) 10:12:50 145.825 FM, Beacon 2401.500 USB
Sapphire 02 Aug 10:59:36 11:04:39 41° 251° (WSW) 11:09:40 437.095 MHz 1200 baud AX-25 AFSK
UKube-1 02 Aug 11:03:21 11:07:40 69° 284° (WNW) 11:11:58 145.840 MHz, 145.915 MHz
SO-50 02 Aug 11:16:14 11:20:13 34° 112° (ESE) 11:24:16 436.795 FM
PCSat 02 Aug 11:33:47 11:37:18 18° 255° (WSW) 11:40:49 145.825 MHz
HO-68 02 Aug 11:39:04 11:45:27 37° 292° (WNW) 11:51:50 435.675 MHz FM
Oscar 11 02 Aug 11:43:31 11:47:38 43° 286° (WNW) 11:51:44 145.825 FM, Beacon 2401.500 USB
FUNcube-1 02 Aug 12:18:05 12:22:09 49° 285° (WNW) 12:26:17 145.950 - 145.970 MHz USB
RS-15 02 Aug 12:43:11 12:54:02 56° 110° (ESE) 13:04:33 29.354 - 29.394 USB, Beacon 29.352 USB
UOSAT-12 02 Aug 12:51:05 12:54:33 22° 110° (ESE) 12:58:05 437.025 FM, 437.400 FM
SO-50 02 Aug 12:57:37 13:00:49 19° 307° (NW) 13:04:04 436.795 FM
JAS-1B 02 Aug 13:36:17 13:41:15 16° 56° (NE) 13:46:22 435.800 - 435.900 CW/SSB
Oscar 19 02 Aug 13:38:53 13:43:03 26° 70° (ENE) 13:47:13 437.125 CW, 437.150 USB
Oscar 16 02 Aug 14:07:12 14:12:10 55° 74° (ENE) 14:17:09 437.025 USB, Beacon 2401.1428
KITSAT 1 02 Aug 14:26:41 14:33:04 25° 51° (NE) 14:39:24 435.175 FM
UOSAT-12 02 Aug 14:30:27 14:34:28 30° 304° (NW) 14:38:35 437.025 FM, 437.400 FM
ITAMSAT 1 02 Aug 14:38:17 14:43:15 47° 73° (ENE) 14:48:13 435.822 SSB
AO-Echo 02 Aug 14:54:24 14:59:41 74° 76° (ENE) 15:04:59 ?
Uribyol 2 02 Aug 14:56:12 15:01:24 78° 76° (ENE) 15:06:35 436.500 FM
RS-15 02 Aug 14:56:41 15:06:37 36° 309° (NW) 15:16:27 29.354 - 29.394 USB, Beacon 29.352 USB
AO-27 02 Aug 14:58:32 15:03:45 79° 76° (ENE) 15:08:58 436.795 MHz FM
Oscar 19 02 Aug 15:17:54 15:22:14 28° 263° (W) 15:26:35 437.125 CW, 437.150 USB
JAS-1B 02 Aug 15:21:07 15:29:57 77° 73° (ENE) 15:39:48 435.800 - 435.900 CW/SSB
TMSAT-1 02 Aug 15:21:39 15:26:24 35° 71° (ENE) 15:31:09 436.925 FM
AO-7 02 Aug 15:30:33 15:35:45 18° 58° (ENE) 15:40:57 29.400 - 29.500 MHz
Saudisat 1A 02 Aug 15:45:42 15:49:12 23° 55° (NE) 15:52:39 436.775 MHz
Gurwin Techsat 1B 02 Aug 15:48:37 15:53:55 86° 257° (WSW) 15:59:16 435.225 FM
Oscar 16 02 Aug 15:49:35 15:51:45 13° 267° (W) 15:53:56 437.025 USB, Beacon 2401.1428
ITAMSAT 1 02 Aug 16:19:50 16:22:53 16° 266° (W) 16:25:57 435.822 SSB
KITSAT 1 02 Aug 16:21:00 16:28:56 64° 249° (WSW) 16:36:50 435.175 FM
OPAL 02 Aug 16:34:04 16:36:58 15° 96° (E) 16:39:53 ?
Uosat F 02 Aug 16:56:08 17:01:07 66° 75° (ENE) 17:06:07 435.120 FM
TMSAT-1 02 Aug 17:02:17 17:06:18 22° 264° (W) 17:10:20 436.925 FM
JAS-1B 02 Aug 17:14:54 17:21:10 21° 270° (W) 17:27:56 435.800 - 435.900 CW/SSB
AO-7 02 Aug 17:19:09 17:27:31 82° 254° (WSW) 17:35:56 29.400 - 29.500 MHz
Saudisat 1A 02 Aug 17:25:00 17:28:42 27° 249° (WSW) 17:32:23 436.775 MHz
Hamsat 02 Aug 17:43:43 17:44:03 10° 67° (ENE) 17:44:23 145.90 MHz
OPAL 02 Aug 18:11:04 18:15:59 48° 288° (WNW) 18:20:57 ?
JAS-2 02 Aug 18:43:31 18:51:09 60° 74° (ENE) 18:58:16 435.800 - 435.900 CW/SSB, 435.910 FM
STRAND 1 02 Aug 19:06:00 19:08:14 13° 94° (E) 19:10:27 ?
Hamsat 02 Aug 19:15:30 19:19:31 48° 261° (W) 19:23:35 145.90 MHz
AO-7 02 Aug 19:18:46 19:21:08 11° 267° (W) 19:23:30 29.400 - 29.500 MHz
SO-67 02 Aug 19:24:33 19:27:09 20° 73° (ENE) 19:29:45 435.3500 MHz FM
MaSat-1 02 Aug 19:52:38 19:55:36 21° 101° (E) 19:58:53 437.345 MHz
HO-68 02 Aug 20:17:16 20:20:48 14° 60° (ENE) 20:24:19 435.675 MHz FM
JAS-2 02 Aug 20:30:30 20:36:16 23° 265° (W) 20:41:49 435.800 - 435.900 CW/SSB, 435.910 FM
STRAND 1 02 Aug 20:42:42 20:47:39 54° 286° (WNW) 20:52:35 ?
SO-67 02 Aug 20:58:04 21:00:07 15° 265° (W) 21:02:09 435.3500 MHz FM
MaSat-1 02 Aug 21:29:15 21:32:38 25° 301° (WNW) 21:36:26 437.345 MHz
SO-50 02 Aug 21:32:39 21:37:27 87° 63° (ENE) 21:42:18 436.795 FM
RS-15 02 Aug 21:51:14 22:01:21 39° 52° (NE) 22:11:46 29.354 - 29.394 USB, Beacon 29.352 USB
UKube-1 02 Aug 21:53:23 21:57:35 49° 74° (ENE) 22:01:48 145.840 MHz, 145.915 MHz
ISS 02 Aug 21:59:59 22:03:15 56° 316° (NW) 22:06:32 145.800 FM
HO-68 02 Aug 22:00:22 22:07:33 86° 255° (WSW) 22:14:45 435.675 MHz FM
Oscar 11 02 Aug 22:32:45 22:37:01 71° 77° (ENE) 22:41:19 145.825 FM, Beacon 2401.500 USB
PCSat 02 Aug 22:45:33 22:47:39 12° 103° (ESE) 22:49:45 145.825 MHz
UOSAT-12 02 Aug 23:04:38 23:09:15 51° 60° (ENE) 23:13:45 437.025 FM, 437.400 FM
FUNcube-1 02 Aug 23:08:58 23:13:13 64° 76° (ENE) 23:17:24 145.950 - 145.970 MHz USB
UKube-1 02 Aug 23:33:24 23:33:59 10° 266° (W) 23:34:34 145.840 MHz, 145.915 MHz
Sapphire 02 Aug 23:52:20 23:57:36 58° 111° (ESE) 00:02:54 437.095 MHz 1200 baud AX-25 AFSK
HO-68 02 Aug 23:55:11 23:55:56 10° 268° (W) 23:56:41 435.675 MHz FM
RS-15 03 Aug 00:03:14 00:13:53 54° 250° (WSW) 00:25:01 29.354 - 29.394 USB, Beacon 29.352 USB
PCSat 03 Aug 00:25:06 00:30:26 63° 296° (WNW) 00:35:48 145.825 MHz
UOSAT-12 03 Aug 00:46:56 00:48:52 13° 253° (WSW) 00:50:48 437.025 FM, 437.400 FM
Sapphire 03 Aug 01:38:05 01:41:22 16° 306° (NW) 01:44:39 437.095 MHz 1200 baud AX-25 AFSK
Oscar 19 03 Aug 01:57:01 01:59:44 14° 94° (E) 02:02:26 437.125 CW, 437.150 USB
PANSAT 03 Aug 02:04:04 02:07:14 24° 160° (SSE) 02:10:24 not established
Oscar 16 03 Aug 02:24:46 02:29:19 31° 98° (E) 02:33:52 437.025 USB, Beacon 2401.1428
ITAMSAT 1 03 Aug 02:57:14 03:01:32 26° 97° (E) 03:05:48 435.822 SSB
AO-Echo 03 Aug 03:08:04 03:12:34 35° 98° (E) 03:16:55 ?
Uribyol 2 03 Aug 03:14:45 03:19:40 43° 100° (E) 03:24:33 436.500 FM
JAS-1B 03 Aug 03:16:05 03:23:33 33° 94° (E) 03:29:57 435.800 - 435.900 CW/SSB
AO-27 03 Aug 03:17:25 03:22:21 44° 100° (E) 03:27:15 436.795 MHz FM
Oscar 19 03 Aug 03:34:15 03:39:15 50° 286° (WNW) 03:44:15 437.125 CW, 437.150 USB
PANSAT 03 Aug 03:43:21 03:47:08 53° 172° (S) 03:50:55 not established
TMSAT-1 03 Aug 03:43:33 03:47:34 22° 96° (E) 03:51:33 436.925 FM
OPAL 03 Aug 03:44:31 03:47:13 15° 65° (ENE) 03:49:54 ?
